User: anonymous   Login
Location: Unspecified
(0.0000°N, 0.0000°E)
Time: 13:17:12
(UTC+00:00)
Language:

NNS O-27 - Orbit

View from above orbital plane
View from above orbital plane
View from above satellite
View from above satellite

Ground track
Ground track

The orbit data is extracted from the following two-line orbital elements,

1 18361U 87080A   17086.71158626 +.00000061 +00000-0 +89597-4 0  9999
2 18361 090.3361 332.8281 0104146 334.7918 024.8166 13.44427008447972
Epoch (UTC): 27 March 2017 17:04:41
Eccentricity: 0.0104146
inclination: 90.3361°
perigee height: 1015 km
apogee height: 1170 km
right ascension of ascending node: 332.8281°
argument of perigee: 334.7918°
revolutions per day: 13.44427008
mean anomaly at epoch: 24.8166°
orbit number at epoch: 44797

The dashed part of the orbit path shows where the satellite is in the earth's shadow,  

DLR